Eastover, SC

6:47 PM EST on November 21, 2017 (GMT -0500)
McEntire Angs

Weather History for KMMT - December, 2011

Change the Weather History Date:

Tuesday, December 6, 2011

  Actual Average Record
Temperature  
Mean Temperature 66 °F -  
Max Temperature 75 °F 58 °F 80 °F (1998)
Min Temperature 56 °F 38 °F 21 °F (2010)
Growing Degree Days 16 (Base 50)    
Moisture  
Dew Point 59 °F    
Average Humidity 93    
Maximum Humidity 100    
Minimum Humidity 57    
Precipitation  
Precipitation 0.00 in - - ()
Sea Level Pressure  
Sea Level Pressure 30.12 in    
Wind  
Wind Speed 5 mph (SE)    
Max Wind Speed 12 mph    
Max Gust Speed -    
Visibility 4 miles    
Events Fog    
Averages and records for this station are not official NWS values.
T = Trace of Precipitation, MM = Missing Value Source: NWS Daily Summary

Daily Weather History Graph

Daily Weather History Graph

Search for Another Location

Airport or City:

Trip Planner

Search our weather history database for the weather conditions in past years. The results will help you decide how hot, cold, wet, or windy it might be!

Date:

Astronomy

Dec. 06, 2011 Rise Set
Actual Time 7:14 AM EST 5:14 PM EST
Civil Twilight 6:46 AM EST 5:41 PM EST
Nautical Twilight 6:15 AM EST 6:12 PM EST
Astronomical Twilight 5:45 AM EST 6:42 PM EST
Moon 2:35 PM EST (12/6) 3:37 AM EST (12/6)
Length of Visible Light 10h 54m
Length of Day
9h 59m
Waxing Gibbous, 86% of the Moon is Illuminated
Dec 6
Waxing Gibbous
Dec 10
Full
Dec 17
Last Quarter
Dec 24
New
Jan 1
First Quarter

Hourly Weather History & Observations

Time (EST) Temp. Dew Point Humidity Pressure Visibility Wind Dir Wind Speed Gust Speed Precip Events Conditions
12:00 AM 57.2 °F 57.2 °F 100% 30.17 in 0.5 mi East 4.6 mph - N/A Fog Fog
12:05 AM 57.2 °F 57.2 °F 100% 30.17 in 0.2 mi ESE 4.6 mph - N/A Fog Fog
12:22 AM 57.2 °F 57.2 °F 100% 30.17 in 0.2 mi ESE 3.5 mph - N/A Fog Fog
12:31 AM 59.0 °F 59.0 °F 100% 30.17 in 0.2 mi East 3.5 mph - N/A Fog Fog
12:37 AM 59.0 °F 59.0 °F 100% 30.17 in 0.2 mi ESE 3.5 mph - N/A Fog Fog
12:54 AM 57.2 °F 57.2 °F 100% 30.17 in 0.2 mi ESE 4.6 mph - N/A Fog Fog
12:55 AM 58.1 °F 57.7 °F 99% 30.17 in 0.2 mi ESE 4.6 mph - N/A Fog Fog
1:55 AM 57.7 °F 57.4 °F 99% 30.16 in 0.2 mi ESE 3.5 mph - N/A Fog Fog
2:55 AM 57.6 °F 57.6 °F 100% 30.16 in 0.2 mi Calm Calm - N/A Fog Fog
3:14 AM 57.2 °F 57.2 °F 100% 30.15 in 0.2 mi ESE 4.6 mph - N/A Fog Fog
3:33 AM 57.2 °F 57.2 °F 100% 30.15 in 0.2 mi ESE 3.5 mph - N/A Fog Fog
3:55 AM 57.4 °F 57.4 °F 100% 30.15 in 0.2 mi SE 4.6 mph - N/A Fog Fog
4:02 AM 57.2 °F 57.2 °F 100% 30.15 in 0.2 mi ESE 5.8 mph - N/A Fog Fog
4:09 AM 57.2 °F 57.2 °F 100% 30.15 in 0.2 mi SE 4.6 mph - N/A Fog Fog
4:55 AM 56.8 °F 56.8 °F 100% 30.14 in 0.2 mi ESE 4.6 mph - N/A Fog Fog
5:12 AM 57.2 °F 57.2 °F 100% 30.14 in 0.2 mi SE 3.5 mph - N/A Fog Fog
5:55 AM 56.7 °F 56.7 °F 100% 30.14 in 0.2 mi Calm Calm - N/A Fog Fog
6:38 AM 57.2 °F 57.2 °F 100% 30.15 in 0.5 mi Calm Calm - N/A Fog Fog
6:52 AM 57.2 °F 57.2 °F 100% 30.15 in 0.2 mi Calm Calm - N/A Fog Fog
6:55 AM 56.8 °F 56.8 °F 100% 30.15 in 0.2 mi SE 3.5 mph - N/A Fog Fog
7:55 AM 57.6 °F 57.6 °F 100% 30.15 in 0.2 mi Calm Calm - N/A Fog Fog
8:55 AM 59.0 °F 59.0 °F 100% 30.15 in 0.2 mi ESE 4.6 mph - N/A Fog Fog
9:55 AM 61.0 °F 61.0 °F 100% 30.16 in 0.5 mi SE 5.8 mph - N/A Fog Fog
10:00 AM 60.8 °F 60.8 °F 100% 30.16 in 0.8 mi SE 4.6 mph - N/A   Overcast
10:10 AM 60.8 °F 60.8 °F 100% 30.16 in 1.0 mi SE 5.8 mph - N/A   Overcast
10:21 AM 62.6 °F 62.6 °F 100% 30.15 in 1.5 mi SE 8.1 mph - N/A   Overcast
10:26 AM 62.6 °F 62.6 °F 100% 30.15 in 2.0 mi SE 6.9 mph - N/A   Overcast
10:42 AM 62.6 °F 62.6 °F 100% 30.15 in 3.0 mi SSE 4.6 mph - N/A   Overcast
10:50 AM 64.4 °F 64.4 °F 100% 30.14 in 5.0 mi SSE 6.9 mph - N/A   Mostly Cloudy
10:55 AM 64.2 °F 64.2 °F 100% 30.14 in 5.0 mi SSE 5.8 mph - N/A   Mostly Cloudy
11:55 AM 69.4 °F 69.3 °F 99% 30.11 in 10.0 mi South 8.1 mph - N/A   Mostly Cloudy
12:55 PM 75.7 °F 59.5 °F 57% 30.08 in 10.0 mi South 8.1 mph - N/A   Mostly Cloudy
1:55 PM 75.4 °F 59.5 °F 58% 30.06 in 10.0 mi SSE 10.4 mph - N/A   Mostly Cloudy
2:55 PM 74.8 °F 58.8 °F 57% 30.05 in 10.0 mi SSE 11.5 mph - N/A   Mostly Cloudy
3:55 PM 73.8 °F 60.3 °F 63% 30.05 in 10.0 mi SSE 6.9 mph - N/A   Mostly Cloudy
4:55 PM 72.0 °F 59.7 °F 65% 30.04 in 10.0 mi SSE 4.6 mph - N/A   Mostly Cloudy
5:55 PM 68.0 °F 59.9 °F 75% 30.04 in 10.0 mi SE 4.6 mph - N/A   Mostly Cloudy
6:55 PM 66.6 °F 59.5 °F 78% 30.04 in 10.0 mi SSE 8.1 mph - N/A   Mostly Cloudy
7:55 PM 66.4 °F 59.5 °F 79% 30.04 in 10.0 mi SSE 8.1 mph - N/A   Mostly Cloudy
8:55 PM 65.7 °F 60.3 °F 83% 30.03 in 10.0 mi SSE 8.1 mph - N/A   Mostly Cloudy
9:55 PM 65.1 °F 60.8 °F 86% 30.02 in 10.0 mi South 8.1 mph - N/A   Mostly Cloudy
10:55 PM 63.5 °F 60.6 °F 90% 30.02 in 10.0 mi SSE 6.9 mph - N/A   Mostly Cloudy
11:55 PM 63.1 °F 60.6 °F 91% 30.01 in 10.0 mi South 6.9 mph - N/A   Clear